StationID,Date,MaxTemp,MinTemp,Precipitation,Snowfall,SnowDepth
"CA001096458","1984-05-01",,,,0.00,0.00
"CA001096458","1984-05-02",,,,0.00,0.00
"CA001096458","1984-05-03",,,0.00,0.00,0.00
"CA001096458","1984-05-04",,,0.00,0.00,0.00
"CA001096458","1984-05-05",,,0.00,0.00,0.00
"CA001096458","1984-05-06",,,0.00,0.00,0.00
"CA001096458","1984-05-07",64.40,,58.00,0.00,0.00
"CA001096458","1984-05-08",49.10,38.30,34.00,0.00,0.00
"CA001096458","1984-05-09",51.80,28.40,2.00,0.00,0.00
"CA001096458","1984-05-10",54.50,30.20,0.00,0.00,0.00
"CA001096458","1984-05-11",56.30,28.40,0.00,0.00,0.00
"CA001096458","1984-05-12",54.50,32.00,10.00,0.00,0.00
"CA001096458","1984-05-13",59.00,35.60,148.00,0.00,0.00
"CA001096458","1984-05-14",53.60,38.30,88.00,0.00,0.00
"CA001096458","1984-05-15",52.70,39.20,8.00,0.00,0.00
"CA001096458","1984-05-16",51.80,35.60,2.00,0.00,0.00
"CA001096458","1984-05-17",59.00,40.10,0.00,0.00,0.00
"CA001096458","1984-05-18",54.50,39.20,56.00,0.00,0.00
"CA001096458","1984-05-19",59.00,39.20,70.00,0.00,0.00
"CA001096458","1984-05-20",55.40,30.20,0.00,0.00,0.00
"CA001096458","1984-05-21",57.20,28.40,0.00,0.00,0.00
"CA001096458","1984-05-22",55.40,28.40,0.00,0.00,0.00
"CA001096458","1984-05-23",59.00,42.80,10.00,0.00,0.00
"CA001096458","1984-05-24",57.20,32.00,0.00,0.00,0.00
"CA001096458","1984-05-25",59.00,31.10,0.00,0.00,0.00
"CA001096458","1984-05-26",59.90,37.40,0.00,0.00,0.00
"CA001096458","1984-05-27",66.20,32.00,0.00,0.00,0.00
"CA001096458","1984-05-28",52.70,36.50,58.00,0.00,0.00
"CA001096458","1984-05-29",63.50,39.20,8.00,0.00,0.00
"CA001096458","1984-05-30",56.30,39.20,32.00,0.00,0.00
"CA001096458","1984-05-31",55.40,33.80,26.00,0.00,0.00
"CA001096458","1984-06-01",61.70,35.60,0.00,0.00,0.00
"CA001096458","1984-06-02",59.90,37.40,8.00,0.00,0.00
"CA001096458","1984-06-03",59.00,43.70,38.00,0.00,0.00
"CA001096458","1984-06-04",55.40,44.60,28.00,0.00,0.00
"CA001096458","1984-06-05",60.80,41.00,100.00,0.00,0.00
"CA001096458","1984-06-06",58.10,46.40,2.00,0.00,0.00
"CA001096458","1984-06-07",60.80,47.30,56.00,0.00,0.00
"CA001096458","1984-06-08",62.60,44.60,22.00,0.00,0.00
"CA001096458","1984-06-09",73.40,48.20,0.00,0.00,0.00
"CA001096458","1984-06-10",72.50,43.70,0.00,0.00,0.00
"CA001096458","1984-06-11",77.00,49.10,16.00,0.00,0.00
"CA001096458","1984-06-12",79.70,48.20,122.00,0.00,0.00
"CA001096458","1984-06-13",74.30,43.70,6.00,0.00,0.00
"CA001096458","1984-06-14",67.10,48.20,16.00,0.00,0.00
"CA001096458","1984-06-15",68.00,46.40,0.00,0.00,0.00
"CA001096458","1984-06-16",59.90,40.10,20.00,0.00,0.00
"CA001096458","1984-06-17",59.00,37.40,0.00,0.00,0.00
"CA001096458","1984-06-18",59.00,32.90,44.00,0.00,0.00
"CA001096458","1984-06-19",50.00,38.30,82.00,0.00,0.00
"CA001096458","1984-06-20",66.20,34.70,0.00,0.00,0.00
"CA001096458","1984-06-21",73.40,40.10,0.00,0.00,0.00
"CA001096458","1984-06-22",77.00,47.30,0.00,0.00,0.00
"CA001096458","1984-06-23",72.50,51.80,14.00,0.00,0.00
"CA001096458","1984-06-24",66.20,50.00,4.00,0.00,0.00
"CA001096458","1984-06-25",65.30,44.60,0.00,0.00,0.00
"CA001096458","1984-06-26",57.20,50.00,112.00,0.00,0.00
"CA001096458","1984-06-27",51.80,37.40,48.00,0.00,0.00
"CA001096458","1984-06-28",62.60,42.80,12.00,0.00,0.00
"CA001096458","1984-06-29",48.20,41.90,32.00,0.00,0.00
"CA001096458","1984-06-30",57.20,39.20,54.00,0.00,0.00
"CA001096458","1984-07-01",62.60,42.80,0.00,0.00,0.00
"CA001096458","1984-07-02",64.40,41.90,0.00,0.00,0.00
"CA001096458","1984-07-03",69.80,43.70,22.00,0.00,0.00
"CA001096458","1984-07-04",62.60,48.20,124.00,0.00,0.00
"CA001096458","1984-07-05",58.10,45.50,104.00,0.00,0.00
"CA001096458","1984-07-06",60.80,40.10,4.00,0.00,0.00
"CA001096458","1984-07-07",55.40,44.60,16.00,0.00,0.00
"CA001096458","1984-07-08",59.90,46.40,0.00,0.00,0.00
"CA001096458","1984-07-09",68.90,44.60,0.00,0.00,0.00
"CA001096458","1984-07-10",68.00,49.10,0.00,0.00,0.00
"CA001096458","1984-07-11",73.40,46.40,6.00,0.00,0.00
"CA001096458","1984-07-12",66.20,50.90,2.00,0.00,0.00
"CA001096458","1984-07-13",64.40,48.20,0.00,0.00,0.00
"CA001096458","1984-07-14",71.60,46.40,0.00,0.00,0.00
"CA001096458","1984-07-15",75.20,44.60,0.00,0.00,0.00
"CA001096458","1984-07-16",78.80,44.60,0.00,0.00,0.00
"CA001096458","1984-07-17",70.70,48.20,0.00,0.00,0.00
"CA001096458","1984-07-18",68.00,42.80,0.00,0.00,0.00
"CA001096458","1984-07-19",58.10,44.60,4.00,0.00,0.00
"CA001096458","1984-07-20",63.50,38.30,0.00,0.00,0.00
"CA001096458","1984-07-21",69.80,47.30,22.00,0.00,0.00
"CA001096458","1984-07-22",74.30,42.80,0.00,0.00,0.00
"CA001096458","1984-07-23",80.60,42.80,0.00,0.00,0.00
"CA001096458","1984-07-24",85.10,49.10,0.00,0.00,0.00
"CA001096458","1984-07-25",89.60,49.10,0.00,0.00,0.00
"CA001096458","1984-07-26",82.40,54.50,14.00,0.00,0.00
"CA001096458","1984-07-27",73.40,49.10,0.00,0.00,0.00
"CA001096458","1984-07-28",77.00,43.70,0.00,0.00,0.00
"CA001096458","1984-07-29",80.60,51.80,0.00,0.00,0.00
"CA001096458","1984-07-30",86.90,47.30,4.00,0.00,0.00
"CA001096458","1984-07-31",87.80,53.60,0.00,0.00,0.00
"CA001096458","1984-08-01",79.70,53.60,12.00,0.00,0.00
"CA001096458","1984-08-02",82.40,51.80,0.00,0.00,0.00
"CA001096458","1984-08-03",83.30,52.70,0.00,0.00,0.00
"CA001096458","1984-08-04",79.70,51.80,0.00,0.00,0.00
"CA001096458","1984-08-05",84.20,51.80,68.00,0.00,0.00
"CA001096458","1984-08-06",67.10,48.20,4.00,0.00,0.00
"CA001096458","1984-08-07",68.90,41.90,0.00,0.00,0.00
"CA001096458","1984-08-08",81.50,49.10,0.00,0.00,0.00
"CA001096458","1984-08-09",71.60,53.60,0.00,0.00,0.00
"CA001096458","1984-08-10",71.60,44.60,0.00,0.00,0.00
"CA001096458","1984-08-11",77.90,40.10,0.00,0.00,0.00
"CA001096458","1984-08-12",77.90,48.20,46.00,0.00,0.00
"CA001096458","1984-08-13",66.20,49.10,12.00,0.00,0.00
"CA001096458","1984-08-14",63.50,46.40,26.00,0.00,0.00
"CA001096458","1984-08-15",66.20,43.70,0.00,0.00,0.00
"CA001096458","1984-08-16",76.10,41.00,2.00,0.00,0.00
"CA001096458","1984-08-17",68.00,47.30,28.00,0.00,0.00
"CA001096458","1984-08-18",59.00,37.40,32.00,0.00,0.00
"CA001096458","1984-08-19",54.50,46.40,98.00,0.00,0.00
"CA001096458","1984-08-20",65.30,43.70,0.00,0.00,0.00
"CA001096458","1984-08-21",74.30,40.10,0.00,0.00,0.00
"CA001096458","1984-08-22",68.00,50.00,68.00,0.00,0.00
"CA001096458","1984-08-23",66.20,41.00,0.00,0.00,0.00
"CA001096458","1984-08-24",64.40,50.00,2.00,0.00,0.00
"CA001096458","1984-08-25",56.30,42.80,102.00,0.00,0.00
"CA001096458","1984-08-26",65.30,50.00,0.00,0.00,0.00
"CA001096458","1984-08-27",56.30,38.30,10.00,0.00,0.00
"CA001096458","1984-08-28",55.40,34.70,8.00,0.00,0.00
"CA001096458","1984-08-29",56.30,34.70,2.00,0.00,0.00
"CA001096458","1984-08-30",62.60,40.10,4.00,0.00,0.00
"CA001096458","1984-08-31",56.30,44.60,128.00,0.00,0.00
"CA001096458","1984-09-01",57.20,34.70,0.00,0.00,0.00
"CA001096458","1984-09-02",60.80,28.40,0.00,0.00,0.00
"CA001096458","1984-09-03",62.60,36.50,0.00,0.00,0.00
"CA001096458","1984-09-04",59.90,46.40,16.00,0.00,0.00
"CA001096458","1984-09-05",53.60,41.90,104.00,0.00,0.00
"CA001096458","1984-09-06",53.60,41.90,2.00,0.00,0.00
"CA001096458","1984-09-07",49.10,34.70,70.00,0.00,0.00
"CA001096458","1984-09-08",53.60,43.70,24.00,0.00,0.00
"CA001096458","1984-09-09",53.60,41.90,34.00,0.00,0.00
"CA001096458","1984-09-10",50.90,41.90,8.00,0.00,0.00
"CA001096458","1984-09-11",48.20,41.00,64.00,0.00,0.00
"CA001096458","1984-09-12",48.20,41.00,4.00,0.00,0.00
"CA001096458","1984-09-13",57.20,37.40,0.00,0.00,0.00
"CA001096458","1984-09-14",59.00,32.90,0.00,0.00,0.00
"CA001096458","1984-09-15",64.40,32.00,12.00,0.00,0.00
"CA001096458","1984-09-16",54.50,41.00,162.00,0.00,0.00
"CA001096458","1984-09-17",57.20,44.60,16.00,0.00,0.00
"CA001096458","1984-09-18",59.90,41.90,0.00,0.00,0.00
"CA001096458","1984-09-19",55.40,32.90,0.00,0.00,0.00
"CA001096458","1984-09-20",51.80,38.30,8.00,0.00,0.00
"CA001096458","1984-09-21",42.80,40.10,14.00,0.00,0.00
"CA001096458","1984-09-22",43.70,32.90,0.00,0.00,0.00
"CA001096458","1984-09-23",42.80,27.50,0.00,0.00,0.00
"CA001096458","1984-09-24",43.70,26.60,0.00,0.00,0.00
"CA001096458","1984-09-25",44.60,22.10,0.00,0.00,0.00
"CA001096458","1984-09-26",42.80,27.50,0.00,0.00,0.00
"CA001096458","1984-09-27",47.30,21.20,0.00,0.00,0.00
"CA001096458","1984-09-28",50.90,24.80,0.00,0.00,0.00
"CA001096458","1984-09-29",57.20,27.50,0.00,0.00,0.00
"CA001096458","1984-09-30",61.70,27.50,0.00,0.00,0.00
"CA001096458","1984-10-01",47.30,32.00,30.00,0.00,0.00
"CA001096458","1984-10-02",51.80,42.80,58.00,0.00,0.00
"CA001096458","1984-10-03",55.40,46.40,30.00,0.00,0.00
"CA001096458","1984-10-04",61.70,44.60,12.00,0.00,0.00
"CA001096458","1984-10-05",51.80,33.80,2.00,0.00,0.00
"CA001096458","1984-10-06",58.10,35.60,16.00,0.00,0.00
"CA001096458","1984-10-07",62.60,45.50,290.00,0.00,0.00
"CA001096458","1984-10-08",50.00,44.60,136.00,0.00,0.00
"CA001096458","1984-10-09",53.60,41.00,0.00,0.00,0.00
"CA001096458","1984-10-10",53.60,41.00,146.00,0.00,0.00
"CA001096458","1984-10-11",46.40,34.70,0.00,0.00,0.00
"CA001096458","1984-10-12",48.20,31.10,0.00,0.00,0.00
"CA001096458","1984-10-13",46.40,40.10,12.00,0.00,0.00
"CA001096458","1984-10-14",43.70,30.20,10.00,0.00,0.00
"CA001096458","1984-10-15",41.90,27.50,0.00,0.00,0.00
"CA001096458","1984-10-16",40.10,25.70,0.00,0.00,0.00
"CA001096458","1984-10-17",32.90,23.00,0.00,0.00,0.00
"CA001096458","1984-10-18",33.80,21.20,0.00,0.00,0.00
"CA001096458","1984-10-19",38.30,22.10,0.00,0.00,0.00
"CA001096458","1984-10-20",39.20,21.20,0.00,0.00,0.00
"CA001096458","1984-10-21",36.50,24.80,0.00,0.00,0.00
"CA001096458","1984-10-22",41.00,24.80,,,0.00
"CA001096458","1984-10-23",41.00,28.40,0.00,0.00,0.00
"CA001096458","1984-10-24",38.30,30.20,174.00,25.00,0.00
"CA001096458","1984-10-25",41.00,28.40,0.00,0.00,
"CA001096458","1984-10-26",24.80,15.80,2.00,2.00,
"CA001096458","1984-10-27",14.90,5.00,14.00,14.00,
"CA001096458","1984-10-28",14.00,0.50,0.00,0.00,10.00
"CA001096458","1984-10-29",10.40,-2.20,10.00,10.00,10.00
"CA001096458","1984-10-30",5.00,-11.20,0.00,0.00,10.00
"CA001096458","1984-10-31",5.00,-16.60,0.00,0.00,30.00
"CA001096458","1984-11-01",12.20,-10.30,55.00,55.00,100.00
"CA001096458","1984-11-02",19.40,10.40,55.00,55.00,120.00
"CA001096458","1984-11-03",22.10,14.00,30.00,30.00,150.00
"CA001096458","1984-11-04",30.20,21.20,3.00,3.00,150.00
"CA001096458","1984-11-05",32.90,19.40,10.00,10.00,150.00
"CA001096458","1984-11-06",32.00,19.40,45.00,45.00,160.00
"CA001096458","1984-11-07",32.90,21.20,0.00,0.00,200.00
"CA001096458","1984-11-08",32.00,23.00,0.00,0.00,200.00
"CA001096458","1984-11-09",32.00,20.30,0.00,0.00,200.00
"CA001096458","1984-11-10",31.10,17.60,40.00,40.00,200.00
"CA001096458","1984-11-11",23.90,10.40,0.00,0.00,230.00
"CA001096458","1984-11-12",14.00,10.40,30.00,30.00,230.00
"CA001096458","1984-11-13",13.10,8.60,30.00,30.00,250.00
"CA001096458","1984-11-14",21.20,4.10,50.00,50.00,280.00
"CA001096458","1984-11-15",23.90,8.60,0.00,0.00,260.00
"CA001096458","1984-11-16",28.40,17.60,0.00,0.00,230.00
"CA001096458","1984-11-17",32.00,24.80,14.00,14.00,230.00
"CA001096458","1984-11-18",34.70,27.50,2.00,0.00,240.00
"CA001096458","1984-11-19",34.70,30.20,26.00,0.00,200.00
"CA001096458","1984-11-20",32.90,24.80,0.00,0.00,180.00
"CA001096458","1984-11-21",35.60,21.20,0.00,0.00,170.00
"CA001096458","1984-11-22",41.00,31.10,58.00,6.00,160.00
"CA001096458","1984-11-23",33.80,24.80,0.00,0.00,140.00
"CA001096458","1984-11-24",28.40,18.50,0.00,0.00,140.00
"CA001096458","1984-11-25",27.50,21.20,4.00,4.00,140.00
"CA001096458","1984-11-26",26.60,21.20,0.00,0.00,140.00
"CA001096458","1984-11-27",24.80,22.10,22.00,22.00,140.00
"CA001096458","1984-11-28",26.60,21.20,10.00,10.00,160.00
"CA001096458","1984-11-29",23.00,7.70,0.00,0.00,170.00
"CA001096458","1984-11-30",18.50,1.40,17.00,17.00,170.00
"CA001096458","1984-12-01",18.50,14.00,0.00,0.00,210.00
"CA001096458","1984-12-02",19.40,14.00,4.00,4.00,210.00
"CA001096458","1984-12-03",12.20,3.20,2.00,2.00,210.00
"CA001096458","1984-12-04",9.50,-3.10,0.00,0.00,210.00
"CA001096458","1984-12-05",33.80,-4.00,0.00,0.00,210.00
"CA001096458","1984-12-06",36.50,23.90,0.00,0.00,210.00
"CA001096458","1984-12-07",32.00,23.90,0.00,0.00,210.00
"CA001096458","1984-12-08",30.20,17.60,0.00,0.00,210.00
"CA001096458","1984-12-09",33.80,24.80,0.00,0.00,200.00
"CA001096458","1984-12-10",25.70,11.30,12.00,12.00,190.00
"CA001096458","1984-12-11",25.70,15.80,56.00,56.00,200.00
"CA001096458","1984-12-12",28.40,21.20,20.00,20.00,260.00
"CA001096458","1984-12-13",30.20,14.00,120.00,120.00,
"CA001096458","1984-12-14",30.20,-0.40,60.00,60.00,
"CA001096458","1984-12-15",-0.40,-11.20,2.00,2.00,400.00
"CA001096458","1984-12-16",-8.50,-26.50,0.00,0.00,400.00
"CA001096458","1984-12-17",-12.10,-30.10,0.00,0.00,400.00
"CA001096458","1984-12-18",6.80,-19.30,26.00,26.00,400.00
"CA001096458","1984-12-19",21.20,1.40,88.00,88.00,
"CA001096458","1984-12-20",22.10,-4.90,20.00,20.00,490.00
"CA001096458","1984-12-21",5.00,-11.20,30.00,30.00,490.00
"CA001096458","1984-12-22",12.20,-0.40,44.00,44.00,500.00
"CA001096458","1984-12-23",9.50,-13.90,4.00,4.00,500.00
"CA001096458","1984-12-24",20.30,-4.00,78.00,78.00,500.00
"CA001096458","1984-12-25",18.50,-7.60,8.00,8.00,540.00
"CA001096458","1984-12-26",-2.20,-15.70,0.00,0.00,540.00
"CA001096458","1984-12-27",-5.80,-13.00,0.00,0.00,540.00
"CA001096458","1984-12-28",-13.00,-22.00,0.00,0.00,530.00
"CA001096458","1984-12-29",-22.90,-34.60,0.00,0.00,520.00
"CA001096458","1984-12-30",-32.80,-43.60,0.00,0.00,500.00
"CA001096458","1984-12-31",-9.40,-39.10,35.00,35.00,500.00
"CA001096458","1985-01-01",6.80,-18.40,24.00,24.00,560.00
"CA001096458","1985-01-02",13.10,-0.40,0.00,0.00,560.00
"CA001096458","1985-01-03",17.60,4.10,0.00,0.00,560.00
"CA001096458","1985-01-04",28.40,10.40,0.00,0.00,560.00
"CA001096458","1985-01-05",32.00,23.90,0.00,0.00,540.00
"CA001096458","1985-01-06",23.90,12.20,0.00,0.00,540.00
"CA001096458","1985-01-07",18.50,11.30,0.00,0.00,540.00
"CA001096458","1985-01-08",15.80,14.00,0.00,0.00,530.00
"CA001096458","1985-01-09",14.90,11.30,0.00,0.00,530.00
"CA001096458","1985-01-10",14.00,10.40,0.00,0.00,530.00
"CA001096458","1985-01-11",27.50,10.40,0.00,0.00,520.00
"CA001096458","1985-01-12",32.00,17.60,0.00,0.00,520.00
"CA001096458","1985-01-13",25.70,12.20,78.00,54.00,
"CA001096458","1985-01-14",30.20,23.00,38.00,22.00,
"CA001096458","1985-01-15",32.90,24.80,52.00,52.00,
"CA001096458","1985-01-16",33.80,30.20,32.00,0.00,600.00
"CA001096458","1985-01-17",32.90,23.00,0.00,0.00,600.00
"CA001096458","1985-01-18",30.20,26.60,20.00,0.00,570.00
"CA001096458","1985-01-19",32.00,29.30,94.00,0.00,560.00
"CA001096458","1985-01-20",32.90,30.20,0.00,0.00,540.00
"CA001096458","1985-01-21",30.20,27.50,0.00,0.00,530.00
"CA001096458","1985-01-22",30.20,27.50,0.00,0.00,530.00
"CA001096458","1985-01-23",29.30,25.70,0.00,0.00,530.00
"CA001096458","1985-01-24",25.70,14.00,0.00,0.00,520.00
"CA001096458","1985-01-25",29.30,12.20,0.00,0.00,520.00
"CA001096458","1985-01-26",22.10,11.30,0.00,0.00,520.00
"CA001096458","1985-01-27",22.10,13.10,0.00,0.00,520.00
"CA001096458","1985-01-28",19.40,11.30,0.00,0.00,520.00
"CA001096458","1985-01-29",11.30,1.40,0.00,0.00,520.00
"CA001096458","1985-01-30",12.20,1.40,0.00,0.00,520.00
"CA001096458","1985-01-31",14.00,-1.30,80.00,80.00,520.00
"CA001096458","1985-02-01",17.60,1.40,0.00,0.00,600.00
"CA001096458","1985-02-02",10.40,-7.60,0.00,0.00,600.00
"CA001096458","1985-02-03",6.80,-11.20,0.00,0.00,600.00
"CA001096458","1985-02-04",15.80,0.50,160.00,160.00,600.00
"CA001096458","1985-02-05",19.40,-0.40,0.00,0.00,690.00
"CA001096458","1985-02-06",15.80,-1.30,0.00,0.00,690.00
"CA001096458","1985-02-07",3.20,-7.60,0.00,0.00,690.00
"CA001096458","1985-02-08",-2.20,-13.90,0.00,0.00,690.00
"CA001096458","1985-02-09",-2.20,-11.20,10.00,10.00,690.00
"CA001096458","1985-02-10",6.80,-20.20,34.00,34.00,700.00
"CA001096458","1985-02-11",14.00,-2.20,10.00,10.00,730.00
"CA001096458","1985-02-12",30.20,-6.70,2.00,2.00,730.00
"CA001096458","1985-02-13",32.00,16.70,46.00,46.00,730.00
"CA001096458","1985-02-14",44.60,26.60,36.00,12.00,690.00
"CA001096458","1985-02-15",34.70,15.80,6.00,6.00,700.00
"CA001096458","1985-02-16",32.90,14.90,0.00,0.00,700.00
"CA001096458","1985-02-17",30.20,14.00,12.00,12.00,700.00
"CA001096458","1985-02-18",39.20,27.50,0.00,0.00,710.00
"CA001096458","1985-02-19",40.10,28.40,0.00,0.00,700.00
"CA001096458","1985-02-20",33.80,19.40,140.00,140.00,700.00
"CA001096458","1985-02-21",40.10,26.60,0.00,0.00,800.00
"CA001096458","1985-02-22",40.10,24.80,46.00,36.00,760.00
"CA001096458","1985-02-23",37.40,31.10,18.00,0.00,760.00
"CA001096458","1985-02-24",39.20,28.40,0.00,0.00,750.00
"CA001096458","1985-02-25",36.50,23.00,4.00,4.00,750.00
"CA001096458","1985-02-26",42.80,24.80,,,720.00
"CA001096458","1985-02-27",43.70,32.00,8.00,0.00,710.00
"CA001096458","1985-02-28",39.20,28.40,2.00,2.00,700.00
"CA001096458","1985-03-01",34.70,19.40,0.00,0.00,700.00
"CA001096458","1985-03-02",32.00,12.20,0.00,0.00,700.00
"CA001096458","1985-03-03",32.90,21.20,10.00,10.00,700.00
"CA001096458","1985-03-04",32.00,22.10,32.00,32.00,710.00
"CA001096458","1985-03-05",24.80,16.70,12.00,12.00,740.00
"CA001096458","1985-03-06",23.00,9.50,0.00,0.00,750.00
"CA001096458","1985-03-07",35.60,12.20,0.00,0.00,730.00
"CA001096458","1985-03-08",41.00,17.60,0.00,0.00,720.00
"CA001096458","1985-03-09",35.60,25.70,0.00,0.00,720.00
"CA001096458","1985-03-10",37.40,23.00,0.00,0.00,720.00
"CA001096458","1985-03-11",41.00,19.40,0.00,0.00,710.00
"CA001096458","1985-03-12",39.20,23.90,0.00,0.00,710.00
"CA001096458","1985-03-13",42.80,23.90,0.00,0.00,710.00
"CA001096458","1985-03-14",40.10,24.80,0.00,0.00,700.00
"CA001096458","1985-03-15",41.00,19.40,0.00,0.00,680.00
"CA001096458","1985-03-16",46.40,30.20,0.00,0.00,660.00
"CA001096458","1985-03-17",47.30,30.20,0.00,0.00,650.00
"CA001096458","1985-03-18",48.20,30.20,2.00,0.00,640.00
"CA001096458","1985-03-19",44.60,27.50,8.00,0.00,640.00
"CA001096458","1985-03-20",41.90,26.60,0.00,0.00,630.00
"CA001096458","1985-03-21",40.10,26.60,6.00,6.00,630.00
"CA001096458","1985-03-22",33.80,21.20,20.00,20.00,640.00
"CA001096458","1985-03-23",36.50,19.40,8.00,8.00,660.00
"CA001096458","1985-03-24",40.10,21.20,0.00,0.00,640.00
"CA001096458","1985-03-25",41.00,14.90,0.00,0.00,630.00
"CA001096458","1985-03-26",40.10,15.80,0.00,0.00,620.00
"CA001096458","1985-03-27",41.00,17.60,0.00,0.00,610.00
"CA001096458","1985-03-28",42.80,23.00,5.00,5.00,610.00
"CA001096458","1985-03-29",37.40,20.30,40.00,40.00,620.00
"CA001096458","1985-03-30",39.20,29.30,16.00,16.00,640.00
"CA001096458","1985-03-31",44.60,29.30,6.00,2.00,610.00
"CA001096458","1985-04-01",40.10,32.00,0.00,0.00,600.00
"CA001096458","1985-04-02",41.90,23.00,0.00,0.00,580.00
"CA001096458","1985-04-03",34.70,23.00,20.00,20.00,580.00
"CA001096458","1985-04-04",35.60,25.70,16.00,16.00,600.00
"CA001096458","1985-04-05",46.40,27.50,0.00,0.00,620.00
"CA001096458","1985-04-06",44.60,20.30,0.00,0.00,590.00
"CA001096458","1985-04-07",50.00,23.00,0.00,0.00,570.00
"CA001096458","1985-04-08",59.00,26.60,0.00,0.00,530.00
"CA001096458","1985-04-09",54.50,29.30,0.00,0.00,500.00
"CA001096458","1985-04-10",48.20,29.30,0.00,0.00,440.00
"CA001096458","1985-04-11",54.50,31.10,0.00,0.00,420.00
"CA001096458","1985-04-12",52.70,35.60,22.00,0.00,410.00
"CA001096458","1985-04-13",53.60,30.20,0.00,0.00,310.00
"CA001096458","1985-04-14",46.40,25.70,0.00,0.00,310.00
"CA001096458","1985-04-15",48.20,23.00,0.00,0.00,230.00
"CA001096458","1985-04-16",55.40,31.10,0.00,0.00,180.00
"CA001096458","1985-04-17",50.90,25.70,0.00,0.00,150.00
"CA001096458","1985-04-18",44.60,25.70,4.00,4.00,140.00
"CA001096458","1985-04-19",46.40,23.00,0.00,0.00,120.00
"CA001096458","1985-04-20",49.10,28.40,0.00,0.00,110.00
"CA001096458","1985-04-21",49.10,27.50,0.00,0.00,100.00
"CA001096458","1985-04-22",42.80,24.80,22.00,22.00,40.00
"CA001096458","1985-04-23",45.50,28.40,92.00,80.00,40.00
"CA001096458","1985-04-24",41.90,27.50,6.00,0.00,40.00
"CA001096458","1985-04-25",46.40,24.80,70.00,70.00,30.00
"CA001096458","1985-04-26",41.00,30.20,46.00,0.00,30.00
"CA001096458","1985-04-27",45.50,23.90,6.00,6.00,20.00
"CA001096458","1985-04-28",48.20,22.10,2.00,2.00,20.00
"CA001096458","1985-04-29",46.40,27.50,0.00,0.00,20.00
"CA001096458","1985-04-30",56.30,23.90,0.00,0.00,20.00
"CA001096458","1985-05-01",64.40,29.30,0.00,0.00,0.00
"CA001096458","1985-05-02",64.40,33.80,0.00,0.00,0.00
"CA001096458","1985-05-03",58.10,37.40,94.00,0.00,0.00
"CA001096458","1985-05-04",50.00,33.80,2.00,0.00,0.00
"CA001096458","1985-05-05",51.80,28.40,0.00,0.00,0.00
"CA001096458","1985-05-06",52.70,29.30,8.00,0.00,0.00
"CA001096458","1985-05-07",55.40,29.30,10.00,2.00,0.00
"CA001096458","1985-05-08",60.80,30.20,0.00,0.00,0.00
"CA001096458","1985-05-09",54.50,29.30,0.00,0.00,0.00
"CA001096458","1985-05-10",48.20,33.80,14.00,14.00,0.00
"CA001096458","1985-05-11",50.00,29.30,0.00,0.00,0.00
"CA001096458","1985-05-12",58.10,27.50,0.00,0.00,0.00
"CA001096458","1985-05-13",55.40,39.20,50.00,0.00,0.00
"CA001096458","1985-05-14",58.10,31.10,4.00,0.00,0.00
"CA001096458","1985-05-15",68.00,28.40,0.00,0.00,0.00
"CA001096458","1985-05-16",78.80,33.80,0.00,0.00,0.00
"CA001096458","1985-05-17",83.30,39.20,0.00,0.00,0.00
"CA001096458","1985-05-18",78.80,43.70,0.00,0.00,0.00
"CA001096458","1985-05-19",76.10,46.40,0.00,0.00,0.00
"CA001096458","1985-05-20",76.10,42.80,0.00,0.00,0.00
"CA001096458","1985-05-21",73.40,44.60,0.00,0.00,0.00
"CA001096458","1985-05-22",75.20,46.40,0.00,0.00,0.00
"CA001096458","1985-05-23",72.50,47.30,44.00,0.00,0.00
"CA001096458","1985-05-24",52.70,44.60,16.00,0.00,0.00
"CA001096458","1985-05-25",56.30,42.80,10.00,0.00,0.00
"CA001096458","1985-05-26",59.00,34.70,72.00,0.00,0.00
"CA001096458","1985-05-27",62.60,37.40,60.00,0.00,0.00
"CA001096458","1985-05-28",66.20,35.60,6.00,0.00,0.00
"CA001096458","1985-05-29",68.90,35.60,0.00,0.00,0.00
"CA001096458","1985-05-30",71.60,46.40,0.00,0.00,0.00
"CA001096458","1985-05-31",72.50,46.40,0.00,0.00,0.00
"CA001096458","1985-06-01",77.00,41.00,0.00,0.00,0.00
"CA001096458","1985-06-02",77.00,41.90,0.00,0.00,0.00
"CA001096458","1985-06-03",77.90,43.70,62.00,0.00,0.00
"CA001096458","1985-06-04",60.80,46.40,28.00,0.00,0.00
"CA001096458","1985-06-05",59.00,43.70,2.00,0.00,0.00
"CA001096458","1985-06-06",62.60,33.80,2.00,0.00,0.00
"CA001096458","1985-06-07",60.80,35.60,8.00,0.00,0.00
"CA001096458","1985-06-08",59.90,41.00,0.00,0.00,0.00
"CA001096458","1985-06-09",59.00,36.50,2.00,0.00,0.00
"CA001096458","1985-06-10",64.40,29.30,0.00,0.00,0.00
"CA001096458","1985-06-11",68.00,46.40,2.00,0.00,0.00
"CA001096458","1985-06-12",59.00,44.60,18.00,0.00,0.00
"CA001096458","1985-06-13",57.20,40.10,82.00,0.00,0.00
"CA001096458","1985-06-14",58.10,40.10,46.00,0.00,0.00
"CA001096458","1985-06-15",54.50,37.40,0.00,0.00,0.00
"CA001096458","1985-06-16",64.40,33.80,0.00,0.00,0.00
"CA001096458","1985-06-17",73.40,33.80,0.00,0.00,0.00
"CA001096458","1985-06-18",84.20,41.00,0.00,0.00,0.00
"CA001096458","1985-06-19",73.40,50.00,0.00,0.00,0.00
"CA001096458","1985-06-20",70.70,48.20,0.00,0.00,0.00
"CA001096458","1985-06-21",59.00,47.30,0.00,0.00,0.00
"CA001096458","1985-06-22",57.20,39.20,14.00,0.00,0.00
"CA001096458","1985-06-23",59.00,33.80,4.00,0.00,0.00
"CA001096458","1985-06-24",68.00,45.50,0.00,0.00,0.00
"CA001096458","1985-06-25",71.60,38.30,0.00,0.00,0.00
"CA001096458","1985-06-26",68.00,48.20,0.00,0.00,0.00
"CA001096458","1985-06-27",67.10,42.80,0.00,0.00,0.00
"CA001096458","1985-06-28",69.80,46.40,0.00,0.00,0.00
"CA001096458","1985-06-29",79.70,44.60,186.00,0.00,0.00
"CA001096458","1985-06-30",68.00,44.60,4.00,0.00,0.00
"CA001096458","1985-07-01",70.70,35.60,0.00,0.00,0.00